When you browse on this site, cookies collect data to enhance your experience and personalize the content and advertising you see.
Visit our Privacy Policy to learn more. By continuing to use the site, you agree to this use of cookies and data.
  • In Lithuania
  • List of Countries
  • For 7 days
  • Water Temperature
  • Satellite Maps
  • Weather Map
  • Weather Widgets
  • user-avatar
    Login

    Hourly Weather Krynka

    Today, 24 May, Friday

    Time Temperature Precipitation Wind Pressure Humidity
    00:00 +10°C° 0 mm 1 mps 745 mmHg 85%
    01:00 +8°C° 0 mm 2 mps 745 mmHg 83%
    02:00 +8°C° 0 mm 2 mps 745 mmHg 85%
    03:00 +7°C° 0 mm 2 mps 745 mmHg 86%
    04:00 +7°C° 0 mm 2 mps 745 mmHg 88%
    05:00 +8°C° 0 mm 2 mps 745 mmHg 84%
    06:00 +10°C° 0 mm 2 mps 745 mmHg 80%
    07:00 +13°C° 0 mm 2 mps 745 mmHg 74%
    08:00 +14°C° 0 mm 2 mps 744 mmHg 68%
    09:00 +15°C° 0 mm 2 mps 744 mmHg 63%
    10:00 +16°C° 0 mm 2 mps 744 mmHg 57%
    11:00 +17°C° 0 mm 2 mps 744 mmHg 55%
    12:00 +18°C° 0 mm 2 mps 744 mmHg 53%
    13:00 +19°C° 0 mm 2 mps 744 mmHg 49%
    14:00 +19°C° 0 mm 2 mps 743 mmHg 50%
    15:00 +19°C° 0 mm 2 mps 743 mmHg 51%
    16:00 +19°C° 0 mm 2 mps 743 mmHg 52%
    17:00 +19°C° 0 mm 1 mps 743 mmHg 58%
    18:00 +16°C° 0 mm 1 mps 742 mmHg 63%
    19:00 +14°C° 0 mm 0 mps 742 mmHg 68%
    20:00 +14°C° 0 mm 1 mps 742 mmHg 69%
    21:00 +13°C° 0 mm 1 mps 742 mmHg 70%
    22:00 +12°C° 0 mm 2 mps 743 mmHg 71%
    23:00 +10°C° 0 mm 2 mps 743 mmHg 73%

    Tomorrow, 25 May, Saturday

    Time Temperature Precipitation Wind Pressure Humidity
    00:00 +10°C° 0 mm 2 mps 742 mmHg 74%
    01:00 +10°C° 0 mm 2 mps 742 mmHg 76%
    02:00 +10°C° 0 mm 2 mps 742 mmHg 77%
    03:00 +10°C° 0 mm 2 mps 742 mmHg 79%
    04:00 +10°C° 0 mm 2 mps 742 mmHg 81%
    05:00 +13°C° 0 mm 2 mps 742 mmHg 79%
    06:00 +15°C° 0 mm 2 mps 743 mmHg 77%
    07:00 +17°C° 0 mm 2 mps 743 mmHg 75%
    08:00 +18°C° 0.1 mm 2 mps 743 mmHg 72%
    09:00 +19°C° 0.1 mm 2 mps 743 mmHg 69%
    10:00 +20°C° 0.1 mm 3 mps 743 mmHg 66%
    11:00 +20°C° 0.4 mm 3 mps 743 mmHg 66%
    12:00 +21°C° 0.4 mm 3 mps 743 mmHg 67%
    13:00 +21°C° 0.4 mm 3 mps 743 mmHg 67%
    14:00 +21°C° 0.3 mm 3 mps 742 mmHg 68%
    15:00 +21°C° 0.3 mm 2 mps 742 mmHg 69%
    16:00 +21°C° 0.3 mm 2 mps 742 mmHg 70%
    17:00 +19°C° 0.5 mm 2 mps 742 mmHg 75%
    18:00 +18°C° 0.5 mm 2 mps 742 mmHg 80%
    19:00 +18°C° 0.5 mm 1 mps 742 mmHg 85%
    20:00 +16°C° 0 mm 1 mps 743 mmHg 86%
    21:00 +15°C° 0 mm 2 mps 743 mmHg 87%
    22:00 +14°C° 0 mm 2 mps 743 mmHg 88%
    23:00 +13°C° 0 mm 2 mps 743 mmHg 89%

    Day after tomorrow, 26 May, Sunday

    Time Temperature Precipitation Wind Pressure Humidity
    00:00 +12°C° 0 mm 2 mps 743 mmHg 90%
    01:00 +12°C° 0 mm 2 mps 743 mmHg 91%
    02:00 +10°C° 0 mm 2 mps 743 mmHg 92%
    03:00 +11°C° 0 mm 1 mps 743 mmHg 92%
    04:00 +10°C° 0 mm 1 mps 743 mmHg 92%
    05:00 +12°C° 0 mm 1 mps 743 mmHg 88%
    06:00 +13°C° 0 mm 1 mps 743 mmHg 84%
    07:00 +15°C° 0 mm 1 mps 743 mmHg 80%
    08:00 +16°C° 0 mm 1 mps 743 mmHg 76%
    09:00 +19°C° 0 mm 1 mps 743 mmHg 71%
    10:00 +21°C° 0 mm 1 mps 743 mmHg 66%
    11:00 +21°C° 0.1 mm 1 mps 743 mmHg 64%
    12:00 +21°C° 0.1 mm 2 mps 742 mmHg 63%
    13:00 +21°C° 0.1 mm 2 mps 742 mmHg 62%
    14:00 +23°C° 0 mm 2 mps 742 mmHg 61%
    15:00 +23°C° 0 mm 2 mps 742 mmHg 60%
    16:00 +23°C° 0 mm 2 mps 741 mmHg 59%
    17:00 +21°C° 0.1 mm 2 mps 741 mmHg 66%
    18:00 +20°C° 0.1 mm 2 mps 742 mmHg 72%
    19:00 +19°C° 0.1 mm 1 mps 742 mmHg 79%
    20:00 +18°C° 0 mm 1 mps 742 mmHg 81%
    21:00 +16°C° 0 mm 1 mps 742 mmHg 83%
    22:00 +15°C° 0 mm 1 mps 742 mmHg 86%
    23:00 +15°C° 0 mm 2 mps 742 mmHg 87%

    27 May, Monday

    Time Temperature Precipitation Wind Pressure Humidity
    00:00 +14°C° 0 mm 2 mps 742 mmHg 88%
    01:00 +14°C° 0 mm 2 mps 741 mmHg 90%
    02:00 +14°C° 0 mm 2 mps 741 mmHg 89%
    03:00 +13°C° 0 mm 2 mps 741 mmHg 89%
    04:00 +13°C° 0 mm 2 mps 741 mmHg 88%
    05:00 +14°C° 0 mm 3 mps 741 mmHg 84%
    06:00 +17°C° 0 mm 4 mps 741 mmHg 81%
    07:00 +19°C° 0 mm 4 mps 741 mmHg 77%
    08:00 +20°C° 0 mm 4 mps 741 mmHg 72%
    09:00 +21°C° 0 mm 5 mps 741 mmHg 66%
    10:00 +22°C° 0 mm 5 mps 741 mmHg 60%
    11:00 +23°C° 0 mm 5 mps 740 mmHg 59%
    12:00 +25°C° 0 mm 4 mps 740 mmHg 57%
    13:00 +25°C° 0 mm 4 mps 740 mmHg 55%
    14:00 +25°C° 0 mm 4 mps 740 mmHg 59%
    15:00 +25°C° 0 mm 4 mps 740 mmHg 62%
    16:00 +25°C° 0 mm 3 mps 739 mmHg 66%
    17:00 +22°C° 0.1 mm 3 mps 739 mmHg 72%
    18:00 +21°C° 0.1 mm 3 mps 739 mmHg 77%
    19:00 +20°C° 0.1 mm 3 mps 739 mmHg 83%
    20:00 +19°C° 0.1 mm 2 mps 739 mmHg 85%
    21:00 +18°C° 0.1 mm 2 mps 739 mmHg 88%
    22:00 +17°C° 0.1 mm 2 mps 739 mmHg 90%
    23:00 +16°C° 0 mm 1 mps 739 mmHg 90%

    28 May, Tuesday

    Time Temperature Precipitation Wind Pressure Humidity
    00:00 +16°C° 0 mm 1 mps 739 mmHg 91%
    01:00 +16°C° 0 mm 1 mps 738 mmHg 91%
    02:00 +16°C° 0.1 mm 1 mps 738 mmHg 92%
    03:00 +15°C° 0.1 mm 1 mps 737 mmHg 93%
    04:00 +15°C° 0.1 mm 1 mps 737 mmHg 94%
    05:00 +15°C° 2.1 mm 1 mps 737 mmHg 95%
    06:00 +15°C° 2.1 mm 1 mps 737 mmHg 96%
    07:00 +15°C° 2.1 mm 2 mps 737 mmHg 97%
    08:00 +16°C° 1.1 mm 2 mps 737 mmHg 97%
    09:00 +16°C° 1.1 mm 2 mps 737 mmHg 96%
    10:00 +16°C° 1.1 mm 2 mps 737 mmHg 96%
    11:00 +17°C° 0.4 mm 2 mps 737 mmHg 94%
    12:00 +17°C° 0.4 mm 3 mps 737 mmHg 93%
    13:00 +18°C° 0.4 mm 4 mps 737 mmHg 91%
    14:00 +17°C° 0.6 mm 4 mps 737 mmHg 93%
    15:00 +15°C° 0.6 mm 5 mps 737 mmHg 94%
    16:00 +14°C° 0.6 mm 6 mps 737 mmHg 96%
    17:00 +13°C° 1.4 mm 6 mps 737 mmHg 95%
    18:00 +13°C° 1.4 mm 6 mps 737 mmHg 95%
    19:00 +11°C° 1.4 mm 6 mps 737 mmHg 95%
    20:00 +11°C° 3.6 mm 6 mps 738 mmHg 96%
    21:00 +12°C° 3.6 mm 5 mps 738 mmHg 96%
    22:00 +12°C° 3.6 mm 5 mps 738 mmHg 96%
    23:00 +12°C° 0.7 mm 5 mps 739 mmHg 96%

    29 May, Wednesday

    Time Temperature Precipitation Wind Pressure Humidity
    00:00 +12°C° 0.7 mm 5 mps 739 mmHg 96%
    01:00 +12°C° 0.7 mm 5 mps 739 mmHg 96%
    02:00 +12°C° 0.2 mm 5 mps 739 mmHg 96%
    03:00 +11°C° 0.2 mm 4 mps 740 mmHg 96%
    04:00 +11°C° 0.2 mm 4 mps 740 mmHg 96%
    05:00 +11°C° 0.1 mm 4 mps 740 mmHg 95%
    06:00 +11°C° 0.1 mm 4 mps 741 mmHg 94%
    07:00 +11°C° 0.1 mm 4 mps 741 mmHg 92%
    08:00 +12°C° 0 mm 4 mps 742 mmHg 87%
    09:00 +13°C° 0 mm 5 mps 743 mmHg 83%
    10:00 +14°C° 0 mm 5 mps 743 mmHg 78%
    11:00 +14°C° 0.1 mm 5 mps 743 mmHg 77%
    12:00 +15°C° 0.1 mm 5 mps 744 mmHg 76%
    13:00 +15°C° 0.1 mm 5 mps 744 mmHg 75%
    14:00 +15°C° 0.2 mm 5 mps 745 mmHg 79%
    15:00 +14°C° 0.2 mm 5 mps 745 mmHg 83%
    16:00 +13°C° 0.2 mm 5 mps 745 mmHg 87%
    17:00 +12°C° 0.5 mm 5 mps 745 mmHg 89%
    18:00 +10°C° 0.5 mm 5 mps 746 mmHg 91%
    19:00 +10°C° 0.5 mm 5 mps 746 mmHg 93%
    20:00 +10°C° 0.3 mm 4 mps 747 mmHg 93%
    21:00 +10°C° 0.3 mm 4 mps 747 mmHg 93%
    22:00 +10°C° 0.3 mm 3 mps 748 mmHg 93%
    23:00 +9°C° 0.1 mm 3 mps 748 mmHg 93%
    Show more